IGO104 VAPO-VIDP

Flight info

Callsign IGO104
Flight time N/A
Altitude 37000
Route DOGAP2A DOGAP W28 BBB Q1 UKASO UKASO7A
Aircraft A20N/M-SDGHIRWXY/LB1D1

Departure

Time 2026-04-28 07:52
Airport Pune International Airport (VAPO)

Arrival

Time N/A
Airport Indira Gandhi International Airport (VIDP)
Time Latitude Longitude Altitude Speed Heading
2026-04-28 07:34 18.58007 73.90920 1950 ft 0 kts 187°
2026-04-28 07:39 18.58014 73.90921 1950 ft 2 kts 207°
2026-04-28 07:39 18.58028 73.90927 1950 ft 2 kts 191°
2026-04-28 07:39 18.58043 73.90931 1950 ft 2 kts 197°
2026-04-28 07:40 18.58053 73.90934 1950 ft 0 kts 195°
2026-04-28 07:40 18.58057 73.90936 1950 ft 0 kts 155°
2026-04-28 07:40 18.58061 73.90932 1950 ft 0 kts 105°
2026-04-28 07:40 18.58062 73.90926 1950 ft 1 kts 96°
2026-04-28 07:41 18.58062 73.90924 1950 ft 0 kts 98°
2026-04-28 07:44 18.58061 73.90928 1950 ft 1 kts 98°
2026-04-28 07:44 18.58059 73.90945 1950 ft 3 kts 98°
2026-04-28 07:44 18.58055 73.90978 1950 ft 4 kts 98°
2026-04-28 07:45 18.58063 73.91010 1950 ft 5 kts 46°
2026-04-28 07:45 18.58099 73.91025 1950 ft 5 kts 19°
2026-04-28 07:45 18.58122 73.91059 1950 ft 6 kts 86°
2026-04-28 07:45 18.58119 73.91110 1950 ft 7 kts 93°
2026-04-28 07:46 18.58116 73.91167 1950 ft 8 kts 94°
2026-04-28 07:46 18.58112 73.91236 1950 ft 10 kts 94°
2026-04-28 07:46 18.58107 73.91316 1950 ft 11 kts 94°
2026-04-28 07:46 18.58101 73.91405 1950 ft 12 kts 94°
2026-04-28 07:47 18.58095 73.91503 1949 ft 14 kts 93°
2026-04-28 07:47 18.58088 73.91609 1949 ft 14 kts 94°
2026-04-28 07:47 18.58081 73.91722 1949 ft 15 kts 93°
2026-04-28 07:47 18.58074 73.91840 1949 ft 16 kts 94°
2026-04-28 07:48 18.58066 73.91963 1949 ft 17 kts 93°
2026-04-28 07:48 18.58058 73.92091 1949 ft 17 kts 94°
2026-04-28 07:48 18.58050 73.92222 1949 ft 18 kts 94°
2026-04-28 07:48 18.58042 73.92356 1949 ft 18 kts 94°
2026-04-28 07:49 18.58033 73.92492 1949 ft 18 kts 94°
2026-04-28 07:49 18.58025 73.92629 1948 ft 19 kts 93°
2026-04-28 07:49 18.58015 73.92770 1948 ft 19 kts 93°
2026-04-28 07:49 18.58008 73.92879 1948 ft 12 kts 94°
2026-04-28 07:50 18.58004 73.92954 1948 ft 7 kts 94°
2026-04-28 07:50 18.58010 73.92997 1948 ft 5 kts 44°
2026-04-28 07:50 18.58054 73.93005 1948 ft 6 kts
2026-04-28 07:50 18.58107 73.93008 1948 ft 8 kts
2026-04-28 07:51 18.58158 73.92992 1948 ft 8 kts 298°
2026-04-28 07:51 18.58167 73.92927 1948 ft 9 kts 273°
2026-04-28 07:51 18.58178 73.92738 1948 ft 60 kts 274°
2026-04-28 07:51 18.58223 73.92014 1949 ft 133 kts 275°
2026-04-28 07:52 18.58311 73.90835 1996 ft 186 kts 277°
2026-04-28 07:52 18.58393 73.89469 2704 ft 185 kts 276°
2026-04-28 07:52 18.58469 73.88166 3607 ft 179 kts 277°
2026-04-28 07:52 18.58551 73.86895 4187 ft 174 kts 278°
2026-04-28 07:53 18.58646 73.85596 4511 ft 182 kts 278°
2026-04-28 07:53 18.58748 73.84244 4895 ft 188 kts 277°
2026-04-28 07:53 18.58834 73.82864 5276 ft 194 kts 276°
2026-04-28 07:53 18.58991 73.81441 5693 ft 196 kts 291°
2026-04-28 07:54 18.59758 73.80276 6069 ft 198 kts 322°
2026-04-28 07:54 18.60916 73.79401 6352 ft 211 kts 327°
2026-04-28 07:54 18.62192 73.78537 6616 ft 227 kts 328°
2026-04-28 07:54 18.63605 73.77603 6832 ft 248 kts 329°
2026-04-28 07:55 18.65074 73.76503 7127 ft 266 kts 314°
2026-04-28 07:55 18.66124 73.74837 7491 ft 281 kts 297°
2026-04-28 07:55 18.66953 73.72961 8032 ft 288 kts 295°
2026-04-28 07:55 18.67771 73.71036 8659 ft 292 kts 295°
2026-04-28 07:56 18.68611 73.69077 9275 ft 296 kts 295°
2026-04-28 07:56 18.69480 73.67100 9927 ft 300 kts 295°
2026-04-28 07:56 18.70379 73.65080 10437 ft 309 kts 295°
2026-04-28 07:56 18.71319 73.62986 10735 ft 326 kts 295°
2026-04-28 07:57 18.72323 73.60761 11236 ft 335 kts 295°
2026-04-28 07:57 18.73312 73.58571 11875 ft 337 kts 295°
2026-04-28 07:57 18.74325 73.56330 12581 ft 339 kts 294°
2026-04-28 07:57 18.75333 73.54100 13257 ft 341 kts 294°
2026-04-28 07:58 18.76365 73.51807 13900 ft 344 kts 295°
2026-04-28 07:58 18.77380 73.49548 14526 ft 347 kts 295°
2026-04-28 07:58 18.78417 73.47244 15130 ft 349 kts 296°
2026-04-28 07:58 18.79462 73.44926 15747 ft 350 kts 296°
2026-04-28 07:59 18.80507 73.42614 16343 ft 352 kts 297°
2026-04-28 07:59 18.81633 73.40307 16915 ft 354 kts 299°
2026-04-28 07:59 18.82800 73.38032 17457 ft 357 kts 300°
2026-04-28 07:59 18.83989 73.35730 18014 ft 359 kts 300°
2026-04-28 08:00 18.85192 73.33392 18554 ft 362 kts 299°
2026-04-28 08:00 18.86372 73.31081 19073 ft 364 kts 299°
2026-04-28 08:00 18.87577 73.28724 19619 ft 367 kts 299°
2026-04-28 08:00 18.88806 73.26321 20125 ft 370 kts 298°
2026-04-28 08:01 18.90026 73.23936 20603 ft 373 kts 298°
2026-04-28 08:01 18.91263 73.21516 21095 ft 376 kts 298°
2026-04-28 08:01 18.92509 73.19080 21605 ft 379 kts 298°
2026-04-28 08:01 18.93758 73.16637 22082 ft 381 kts 298°
2026-04-28 08:02 18.95017 73.14174 22588 ft 383 kts 298°
2026-04-28 08:02 18.96299 73.11664 23066 ft 385 kts 298°
2026-04-28 08:02 18.97575 73.09167 23565 ft 387 kts 298°
2026-04-28 08:02 18.98847 73.06675 24068 ft 387 kts 298°
2026-04-28 08:03 19.00117 73.04187 24534 ft 388 kts 298°
2026-04-28 08:03 19.01395 73.01681 24979 ft 389 kts 297°
2026-04-28 08:03 19.02681 72.99158 25423 ft 390 kts 297°
2026-04-28 08:03 19.03982 72.96603 25820 ft 392 kts 297°
2026-04-28 08:04 19.05273 72.94067 26214 ft 394 kts 297°
2026-04-28 08:04 19.06634 72.91558 26587 ft 397 kts 305°
2026-04-28 08:04 19.08576 72.89495 26951 ft 402 kts 323°
2026-04-28 08:04 19.11084 72.88154 27347 ft 408 kts 340°
2026-04-28 08:05 19.13932 72.87687 27692 ft 416 kts 357°
2026-04-28 08:05 19.16813 72.87802 28037 ft 419 kts 359°
2026-04-28 08:05 19.19767 72.87945 28310 ft 423 kts 359°
2026-04-28 08:05 19.22725 72.88084 28625 ft 425 kts 358°
2026-04-28 08:06 19.25703 72.88219 28946 ft 427 kts 358°
2026-04-28 08:06 19.28688 72.88351 29251 ft 429 kts 358°
2026-04-28 08:06 19.31687 72.88480 29552 ft 431 kts 358°
2026-04-28 08:06 19.34690 72.88609 29846 ft 433 kts 358°
2026-04-28 08:07 19.37700 72.88738 30128 ft 435 kts 358°
2026-04-28 08:07 19.40743 72.88869 30406 ft 436 kts 358°
2026-04-28 08:07 19.43761 72.88998 30726 ft 437 kts 358°
2026-04-28 08:07 19.46831 72.89130 31113 ft 435 kts 358°
2026-04-28 08:08 19.49858 72.89260 31485 ft 434 kts 358°
2026-04-28 08:08 19.52852 72.89388 31831 ft 432 kts 358°
2026-04-28 08:08 19.55848 72.89516 32164 ft 431 kts 358°
2026-04-28 08:08 19.58856 72.89644 32488 ft 430 kts 357°
2026-04-28 08:09 19.61864 72.89772 32823 ft 429 kts 357°
2026-04-28 08:09 19.64849 72.89899 33166 ft 428 kts 357°
2026-04-28 08:09 19.67837 72.90025 33495 ft 428 kts 358°
2026-04-28 08:09 19.70806 72.90151 33838 ft 427 kts 358°
2026-04-28 08:10 19.73744 72.90276 34183 ft 425 kts 358°
2026-04-28 08:10 19.76710 72.90402 34522 ft 424 kts 358°
2026-04-28 08:10 19.79663 72.90528 34846 ft 422 kts 358°
2026-04-28 08:10 19.82581 72.90654 35136 ft 421 kts 358°
2026-04-28 08:11 19.85526 72.90780 35360 ft 422 kts 358°
2026-04-28 08:11 19.88498 72.90907 35544 ft 423 kts 358°
2026-04-28 08:11 19.91427 72.91032 35725 ft 424 kts 358°
2026-04-28 08:11 19.94379 72.91158 35890 ft 425 kts 358°
2026-04-28 08:12 19.97351 72.91286 36062 ft 426 kts 358°
2026-04-28 08:12 20.00313 72.91412 36236 ft 426 kts 358°
2026-04-28 08:12 20.03284 72.91541 36413 ft 427 kts 358°
2026-04-28 08:12 20.06257 72.91667 36571 ft 427 kts 358°
2026-04-28 08:13 20.09253 72.91795 36717 ft 428 kts 358°
2026-04-28 08:13 20.12249 72.91924 36764 ft 429 kts 358°
2026-04-28 08:13 20.18216 72.92181 36774 ft 428 kts 359°
2026-04-28 08:14 20.24186 72.92440 36772 ft 428 kts 359°
2026-04-28 08:14 20.30121 72.92696 36769 ft 428 kts 358°
2026-04-28 08:15 20.36079 72.92953 36766 ft 428 kts 358°
2026-04-28 08:15 20.42059 72.93211 36761 ft 428 kts 358°
2026-04-28 08:16 20.48018 72.93468 36760 ft 428 kts 358°
2026-04-28 08:16 20.53970 72.93724 36760 ft 427 kts 358°
2026-04-28 08:17 20.59883 72.93978 36762 ft 426 kts 358°
2026-04-28 08:17 20.65818 72.94233 36763 ft 426 kts 358°
2026-04-28 08:18 20.71753 72.94489 36760 ft 426 kts 358°
2026-04-28 08:18 20.77698 72.94741 36752 ft 426 kts 358°
2026-04-28 08:19 20.83621 72.94957 36751 ft 425 kts 358°
2026-04-28 08:19 20.89559 72.95171 36752 ft 425 kts 358°
2026-04-28 08:20 20.92516 72.95277 36759 ft 424 kts 358°
2026-04-28 08:20 21.01411 72.95599 36773 ft 423 kts 358°
2026-04-28 08:21 21.07336 72.95816 36771 ft 423 kts 358°
2026-04-28 08:21 21.13238 72.96135 36775 ft 425 kts
2026-04-28 08:22 21.19099 72.97077 36765 ft 428 kts
2026-04-28 08:22 21.24895 72.98730 36767 ft 431 kts 14°
2026-04-28 08:23 21.30574 73.00877 36769 ft 432 kts 15°
2026-04-28 08:23 21.36244 73.03070 36756 ft 431 kts 15°
2026-04-28 08:24 21.41870 73.05246 36756 ft 432 kts 15°
2026-04-28 08:24 21.47522 73.07431 36750 ft 431 kts 15°
2026-04-28 08:25 21.53184 73.09621 36743 ft 431 kts 15°
2026-04-28 08:26 21.61653 73.12899 36740 ft 430 kts 15°
2026-04-28 08:26 21.67274 73.15076 36738 ft 429 kts 15°
2026-04-28 08:27 21.72907 73.17261 36740 ft 429 kts 15°
2026-04-28 08:27 21.78536 73.19443 36740 ft 430 kts 15°
2026-04-28 08:28 21.84184 73.21637 36739 ft 430 kts 15°
2026-04-28 08:28 21.89794 73.23820 36733 ft 428 kts 14°
2026-04-28 08:29 21.95426 73.26009 36739 ft 429 kts 15°
2026-04-28 08:29 22.01031 73.28191 36729 ft 429 kts 15°
2026-04-28 08:30 22.06677 73.30393 36727 ft 428 kts 15°
2026-04-28 08:30 22.12281 73.32577 36744 ft 429 kts 15°
2026-04-28 08:31 22.17916 73.34768 36751 ft 429 kts 14°
2026-04-28 08:31 22.23526 73.36957 36752 ft 428 kts 14°
2026-04-28 08:32 22.29125 73.39146 36764 ft 429 kts 14°
2026-04-28 08:32 22.31002 73.39880 36765 ft 429 kts 14°